Regional Weather Roundup
Issued by NWS

Home | Current Version | Previous Version | Text Only | Print | Product List | Glossary On
Versions: 1 2 3 4 5 6 7 8 9 10 11 12 13 14 15 16 17 18 19 20 21 22 23 24 25 26 27 28 29 30 31 32 33 34 35 36 37 38 39 40 41 42 43 44 45 46 47 48 49 50
000
ASUS43 KLSX 190857
RWRMO

WEATHER SUMMARY FOR MISSOURI
NATIONAL WEATHER SERVICE SPRINGFIELD MO
400 AM CDT THU APR 19 2018

NOTE: "FAIR" INDICATES FEW OR NO CLOUDS BELOW 12,000 FEET WITH NO
       SIGNIFICANT WEATHER AND/OR OBSTRUCTIONS TO VISIBILITY.
       CURRENT SKY AND/OR WEATHER CONDITIONS ARE NOT AVAILABLE FOR
       CHILLICOTHE AND FARMINGTON.

MOZ001>031-035>038-043-044-053-054-191000-
...NORTHERN AND WESTERN MISSOURI...

CITY           SKY/WX    TMP DP  RH WIND       PRES   REMARKS
KANSAS CTY INT CLOUDY    36  28  73 N16G24    30.27R WCI  26
LEE`S SUMMIT   CLOUDY    39  30  70 NW17G23   30.26R WCI  30
ST JOSEPH      CLOUDY    31  28  89 N8        30.31R WCI  23
CHILLICOTHE      N/A     34  26  72 N6        30.28R WCI  29

$$
MOZ066>068-077>081-088>096-101>105-191000-
...SOUTHWEST MISSOURI...

CITY           SKY/WX    TMP DP  RH WIND       PRES   REMARKS
SPRINGFIELD    CLOUDY    34  26  72 NW9       30.23R WCI  27
JOPLIN         CLOUDY    35  27  72 NW3       30.29R

$$
MOZ032>034-039>042-045>050-055>058-069>072-191000-
...CENTRAL MISSOURI...

CITY           SKY/WX    TMP DP  RH WIND       PRES   REMARKS
COLUMBIA       NOT AVBL
JEFFERSON CITY CLOUDY    36  25  64 N8        30.24R WCI  30
ROLLA          CLOUDY    33  25  72 NW9       30.19R WCI  25
SEDALIA        CLOUDY    39  32  76 NW12      30.25R
WARRENSBURG    CLOUDY    37  30  75 NW7       30.25R

$$
MOZ051-052-059>065-191000-
...EAST CENTRAL MISSOURI...

CITY           SKY/WX    TMP DP  RH WIND       PRES   REMARKS
ST LOUIS INTL  FLURRIES  38  27  64 NW15      30.18R WCI  29

$$
MOZ072>076-082>087-097>100-106>115-191000-
...SOUTH CENTRAL AND SOUTHEAST MISSOURI...

CITY           SKY/WX    TMP DP  RH WIND       PRES   REMARKS
CAPE GIRARDEAU CLOUDY    42  27  55 N17G28    30.15R
POPLAR BLUFF   CLOUDY    45  29  53 N15       30.15R
WEST PLAINS    CLEAR     37  25  61 NW12      30.20R WCI  29

$$



USA.gov is the U.S. government's official web portal to all federal, state and local government web resources and services.